Torna al catalogo

STARLINK-37269

AttivoComunicazioniSSO
NORAD 68621·PAYLOAD·🇺🇸 United States

Lanciato Apr 5, 2026 da Vandenberg Space Force Base

Loading…

Prossimi Passaggi (prossime 24 ore)

TLE

AggiornatoSource: CelesTrak SupGP

Epoca: Sep 14, 2026, 21:42 UTC

1 68621C 26073V   26257.90465278  .00080373  00000+0  24956-2 0  2579
2 68621  97.2849  95.9734 0001729  91.5733 193.5480 15.33389522    10

Traccia STARLINK-37269 in tempo reale con AllMySat

Download on the App Store